TimeEDT,TemperatureF,Dew PointF,Humidity,Sea Level PressureIn,VisibilityMPH,Wind Direction,Wind SpeedMPH,Gust SpeedMPH,PrecipitationIn,Events,Conditions,WindDirDegrees,DateUTC
12:53 AM,73.0,72.0,96,29.99,10.0,Calm,Calm,-,N/A,,Clear,0,2012-10-09 04:53:00
1:53 AM,73.0,71.1,93,29.97,10.0,Calm,Calm,-,N/A,,Clear,0,2012-10-09 05:53:00
2:53 AM,73.0,72.0,96,29.97,10.0,Calm,Calm,-,N/A,,Clear,0,2012-10-09 06:53:00
3:53 AM,73.4,71.6,94,29.97,10.0,Calm,Calm,-,N/A,,Clear,0,2012-10-09 07:53:00
4:53 AM,73.0,71.1,93,29.96,10.0,Calm,Calm,-,N/A,,Clear,0,2012-10-09 08:53:00
5:53 AM,73.0,71.1,93,29.97,10.0,Calm,Calm,-,N/A,,Clear,0,2012-10-09 09:53:00
6:53 AM,72.0,70.0,93,29.98,10.0,Calm,Calm,-,N/A,,Clear,0,2012-10-09 10:53:00
7:53 AM,73.4,69.8,88,30.00,10.0,Calm,Calm,-,N/A,,Clear,0,2012-10-09 11:53:00
8:22 AM,73.4,71.6,94,30.00,10.0,NE,4.6,-,N/A,,Partly Cloudy,40,2012-10-09 12:22:00
8:53 AM,75.0,71.1,87,30.01,10.0,ENE,5.8,-,N/A,,Clear,70,2012-10-09 12:53:00
9:53 AM,79.0,72.0,79,30.02,10.0,ENE,5.8,-,N/A,,Clear,60,2012-10-09 13:53:00
10:53 AM,82.0,73.0,74,30.03,10.0,ENE,4.6,-,N/A,,Clear,60,2012-10-09 14:53:00
11:53 AM,84.9,72.0,65,30.02,10.0,East,4.6,-,N/A,,Clear,90,2012-10-09 15:53:00
12:53 PM,87.1,72.0,61,30.01,10.0,NE,5.8,-,N/A,,Scattered Clouds,40,2012-10-09 16:53:00
1:53 PM,87.1,69.1,55,29.99,10.0,Calm,Calm,-,N/A,,Mostly Cloudy,0,2012-10-09 17:53:00
2:53 PM,90.0,70.0,52,29.97,10.0,NNE,6.9,-,N/A,,Partly Cloudy,20,2012-10-09 18:53:00
3:53 PM,88.0,69.1,53,29.96,10.0,NE,6.9,-,N/A,,Mostly Cloudy,40,2012-10-09 19:53:00
4:53 PM,89.1,70.0,53,29.95,10.0,NE,8.1,-,N/A,,Overcast,50,2012-10-09 20:53:00
5:53 PM,87.1,70.0,57,29.96,10.0,NE,5.8,-,N/A,,Mostly Cloudy,40,2012-10-09 21:53:00
6:32 PM,84.2,71.6,66,29.97,10.0,NE,4.6,-,N/A,,Mostly Cloudy,40,2012-10-09 22:32:00
6:53 PM,84.0,72.0,67,29.97,10.0,ENE,3.5,-,N/A,,Scattered Clouds,70,2012-10-09 22:53:00
7:53 PM,82.0,73.0,74,29.98,10.0,Calm,Calm,-,N/A,,Clear,0,2012-10-09 23:53:00
8:53 PM,81.0,73.9,79,29.99,10.0,NNW,3.5,-,N/A,,Overcast,330,2012-10-10 00:53:00
9:53 PM,81.0,75.0,82,30.02,10.0,NE,3.5,-,N/A,,Overcast,40,2012-10-10 01:53:00
10:53 PM,79.0,75.0,88,30.03,10.0,ENE,6.9,-,0.00,,Overcast,70,2012-10-10 02:53:00
11:04 PM,78.8,75.2,89,30.04,10.0,ENE,5.8,-,N/A,,Mostly Cloudy,70,2012-10-10 03:04:00
11:53 PM,77.0,75.0,94,30.04,10.0,ENE,6.9,-,N/A,,Scattered Clouds,70,2012-10-10 03:53:00